"Period start","avg(HW err(1)/warn(2) (#))","avg(Visibility (m))","avg(Weather code (#))","avg(Precip intensity (mm/h))","min(HW err(1)/warn(2) (#))","max(HW err(1)/warn(2) (#))","std(HW err(1)/warn(2) (#))","med(HW err(1)/warn(2) (#))","min(Visibility (m))","max(Visibility (m))","std(Visibility (m))","med(Visibility (m))","min(Weather code (#))","max(Weather code (#))","std(Weather code (#))","med(Weather code (#))","min(Precip intensity (mm/h))","max(Precip intensity (mm/h))","std(Precip intensity (mm/h))","med(Precip intensity (mm/h))"
2014-07-02 00:00:00,2,49304,0,0.00,2,2,0,2,44522,50000,1621,50000,0,0,0,0,0.00,0.00,0.00,0.00
2014-07-02 00:10:00,2,49491,0,0.00,2,2,0,2,44913,50000,1526,50000,0,0,0,0,0.00,0.00,0.00,0.00
2014-07-02 00:20:00,2,49479,0,0.00,2,2,0,2,45826,50000,1256,50000,0,0,0,0,0.00,0.00,0.00,0.00
2014-07-02 00:30:00,2,50000,0,0.00,2,2,0,2,50000,50000,0,50000,0,0,0,0,0.00,0.00,0.00,0.00
2014-07-02 00:40:00,2,49693,0,0.00,2,2,0,2,46926,50000,922,50000,0,0,0,0,0.00,0.00,0.00,0.00
2014-07-02 00:50:00,2,49995,0,0.00,2,2,0,2,49949,50000,15,50000,0,0,0,0,0.00,0.00,0.00,0.00
2014-07-02 01:00:00,2,11158,2,0.00,2,2,0,2,1214,50000,15768,3352,0,4,2,0,0.00,0.00,0.00,0.00
2014-07-02 01:10:00,2,960,4,0.00,2,2,0,2,680,1118,137,980,4,5,0,4,0.00,0.00,0.00,0.00
2014-07-02 01:20:00,2,1041,5,0.00,2,2,0,2,721,1607,257,1032,4,5,0,5,0.00,0.00,0.00,0.00
2014-07-02 01:30:00,2,866,5,0.00,2,2,0,2,682,1077,108,860,5,5,0,5,0.00,0.00,0.00,0.00
2014-07-02 01:40:00,2,864,5,0.00,2,2,0,2,674,1096,119,827,5,5,0,5,0.00,0.00,0.00,0.00
2014-07-02 01:50:00,2,1965,5,0.00,2,2,0,2,797,4944,1295,1273,4,5,0,5,0.00,0.00,0.00,0.00
2014-07-02 02:00:00,2,13119,4,0.00,2,2,0,2,3228,35335,12543,4117,4,4,0,4,0.00,0.00,0.00,0.00
2014-07-02 02:10:00,2,27492,2,0.00,2,2,0,2,13293,40142,8816,29724,0,4,2,4,0.00,0.00,0.00,0.00
2014-07-02 02:20:00,2,32877,0,0.00,2,2,0,2,10033,49097,14658,40409,0,0,0,0,0.00,0.00,0.00,0.00
2014-07-02 02:30:00,2,49817,0,0.00,2,2,0,2,48988,50000,331,50000,0,0,0,0,0.00,0.00,0.00,0.00
2014-07-02 02:40:00,2,48818,0,0.00,2,2,0,2,45022,50000,1853,50000,0,0,0,0,0.00,0.00,0.00,0.00
2014-07-02 02:50:00,2,48631,0,0.00,2,2,0,2,42942,50000,2716,50000,0,0,0,0,0.00,0.00,0.00,0.00
2014-07-02 03:00:00,2,49954,0,0.00,2,2,0,2,49630,50000,111,50000,0,0,0,0,0.00,0.00,0.00,0.00
2014-07-02 03:10:00,2,49953,0,0.00,2,2,0,2,49690,50000,100,50000,0,0,0,0,0.00,0.00,0.00,0.00
2014-07-02 03:20:00,2,45645,0,0.00,2,2,0,2,28895,50000,6323,48726,0,0,0,0,0.00,0.00,0.00,0.00
2014-07-02 03:30:00,2,43384,0,0.00,2,2,0,2,31596,50000,5845,45468,0,0,0,0,0.00,0.00,0.00,0.00
2014-07-02 03:40:00,2,48948,0,0.00,2,2,0,2,44730,50000,1731,50000,0,0,0,0,0.00,0.00,0.00,0.00
2014-07-02 03:50:00,2,40696,0,0.00,2,2,0,2,20349,50000,9156,41848,0,0,0,0,0.00,0.00,0.00,0.00
2014-07-02 04:00:00,2,44678,0,0.00,2,2,0,2,36669,50000,4156,45210,0,0,0,0,0.00,0.00,0.00,0.00
2014-07-02 04:10:00,2,31820,0,0.00,2,2,0,2,22114,47211,7733,32511,0,0,0,0,0.00,0.00,0.00,0.00
2014-07-02 04:20:00,2,48660,0,0.00,2,2,0,2,45317,50000,1556,48967,0,0,0,0,0.00,0.00,0.00,0.00
2014-07-02 04:30:00,2,49178,0,0.00,2,2,0,2,47054,50000,1098,50000,0,0,0,0,0.00,0.00,0.00,0.00
2014-07-02 04:40:00,2,46614,0,0.00,2,2,0,2,37828,50000,4668,49442,0,0,0,0,0.00,0.00,0.00,0.00
2014-07-02 04:50:00,2,48838,0,0.00,2,2,0,2,41938,50000,2424,50000,0,0,0,0,0.00,0.00,0.00,0.00
2014-07-02 05:00:00,2,50000,0,0.00,2,2,0,2,50000,50000,0,50000,0,0,0,0,0.00,0.00,0.00,0.00
2014-07-02 05:10:00,2,48923,0,0.00,2,2,0,2,43637,50000,2067,50000,0,0,0,0,0.00,0.00,0.00,0.00
2014-07-02 05:20:00,2,48785,0,0.00,2,2,0,2,44235,50000,2000,50000,0,0,0,0,0.00,0.00,0.00,0.00
2014-07-02 05:30:00,2,49864,0,0.00,2,2,0,2,48686,50000,393,50000,0,0,0,0,0.00,0.00,0.00,0.00
2014-07-02 05:40:00,2,49941,0,0.00,2,2,0,2,49406,50000,178,50000,0,0,0,0,0.00,0.00,0.00,0.00
2014-07-02 05:50:00,2,45833,0,0.00,2,2,0,2,33352,50000,6545,50000,0,0,0,0,0.00,0.00,0.00,0.00
2014-07-02 06:00:00,2,48732,0,0.00,2,2,0,2,44936,50000,1964,50000,0,0,0,0,0.00,0.00,0.00,0.00
2014-07-02 06:10:00,2,48258,0,0.00,2,2,0,2,42898,50000,2278,49678,0,0,0,0,0.00,0.00,0.00,0.00
2014-07-02 06:20:00,2,49860,0,0.00,2,2,0,2,48596,50000,421,50000,0,0,0,0,0.00,0.00,0.00,0.00
2014-07-02 06:30:00,2,46116,0,0.00,2,2,0,2,37090,50000,3905,47275,0,0,0,0,0.00,0.00,0.00,0.00
2014-07-02 06:40:00,2,49868,0,0.00,2,2,0,2,48676,50000,397,50000,0,0,0,0,0.00,0.00,0.00,0.00
2014-07-02 06:50:00,2,49340,0,0.00,2,2,0,2,46564,50000,1168,50000,0,0,0,0,0.00,0.00,0.00,0.00
2014-07-02 07:00:00,2,48630,0,0.00,2,2,0,2,41743,50000,2622,50000,0,0,0,0,0.00,0.00,0.00,0.00
2014-07-02 07:10:00,2,50000,0,0.00,2,2,0,2,50000,50000,0,50000,0,0,0,0,0.00,0.00,0.00,0.00
2014-07-02 07:20:00,2,44142,0,0.00,2,2,0,2,30518,50000,8568,49886,0,0,0,0,0.00,0.00,0.00,0.00
2014-07-02 07:30:00,2,37910,0,0.00,2,2,0,2,27473,50000,8857,34538,0,0,0,0,0.00,0.00,0.00,0.00
2014-07-02 07:40:00,2,49563,0,0.00,2,2,0,2,46697,50000,1007,50000,0,0,0,0,0.00,0.00,0.00,0.00
2014-07-02 07:50:00,2,50000,0,0.00,2,2,0,2,50000,50000,0,50000,0,0,0,0,0.00,0.00,0.00,0.00
2014-07-02 08:00:00,2,48772,0,0.00,2,2,0,2,45374,50000,1545,49402,0,0,0,0,0.00,0.00,0.00,0.00
2014-07-02 08:10:00,2,49497,0,0.00,2,2,0,2,46403,50000,1056,50000,0,0,0,0,0.00,0.00,0.00,0.00
2014-07-02 08:20:00,2,48427,0,0.00,2,2,0,2,42450,50000,2988,50000,0,0,0,0,0.00,0.00,0.00,0.00
2014-07-02 08:30:00,2,46000,0,0.00,2,2,0,2,31737,50000,6606,49871,0,0,0,0,0.00,0.00,0.00,0.00
2014-07-02 08:40:00,2,49793,0,0.00,2,2,0,2,47927,50000,622,50000,0,0,0,0,0.00,0.00,0.00,0.00
2014-07-02 08:50:00,2,45250,0,0.00,2,2,0,2,36119,50000,5188,48160,0,0,0,0,0.00,0.00,0.00,0.00
2014-07-02 09:00:00,2,49712,0,0.00,2,2,0,2,47332,50000,796,50000,0,0,0,0,0.00,0.00,0.00,0.00
2014-07-02 09:10:00,2,49191,0,0.00,2,2,0,2,45462,50000,1634,50000,0,0,0,0,0.00,0.00,0.00,0.00
2014-07-02 09:20:00,2,45413,0,0.00,2,2,0,2,29803,50000,7089,50000,0,0,0,0,0.00,0.00,0.00,0.00
2014-07-02 09:30:00,2,49637,0,0.00,2,2,0,2,46371,50000,1089,50000,0,0,0,0,0.00,0.00,0.00,0.00
2014-07-02 09:40:00,2,50000,0,0.00,2,2,0,2,50000,50000,0,50000,0,0,0,0,0.00,0.00,0.00,0.00
2014-07-02 09:50:00,2,50000,0,0.00,2,2,0,2,50000,50000,0,50000,0,0,0,0,0.00,0.00,0.00,0.00
2014-07-02 10:00:00,2,49668,0,0.00,2,2,0,2,46684,50000,995,50000,0,0,0,0,0.00,0.00,0.00,0.00
2014-07-02 10:10:00,2,49965,0,0.00,2,2,0,2,49646,50000,106,50000,0,0,0,0,0.00,0.00,0.00,0.00
2014-07-02 10:20:00,2,50000,0,0.00,2,2,0,2,50000,50000,0,50000,0,0,0,0,0.00,0.00,0.00,0.00
2014-07-02 10:30:00,2,50000,0,0.00,2,2,0,2,50000,50000,0,50000,0,0,0,0,0.00,0.00,0.00,0.00
2014-07-02 10:40:00,2,50000,0,0.00,2,2,0,2,50000,50000,0,50000,0,0,0,0,0.00,0.00,0.00,0.00
2014-07-02 10:50:00,2,49596,0,0.00,2,2,0,2,45961,50000,1212,50000,0,0,0,0,0.00,0.00,0.00,0.00
2014-07-02 11:00:00,2,50000,0,0.00,2,2,0,2,50000,50000,0,50000,0,0,0,0,0.00,0.00,0.00,0.00
2014-07-02 11:10:00,2,49978,0,0.00,2,2,0,2,49779,50000,66,50000,0,0,0,0,0.00,0.00,0.00,0.00
2014-07-02 11:20:00,2,50000,0,0.00,2,2,0,2,50000,50000,0,50000,0,0,0,0,0.00,0.00,0.00,0.00
2014-07-02 11:30:00,2,49696,0,0.00,2,2,0,2,46963,50000,911,50000,0,0,0,0,0.00,0.00,0.00,0.00
2014-07-02 11:40:00,2,50000,0,0.00,2,2,0,2,50000,50000,0,50000,0,0,0,0,0.00,0.00,0.00,0.00
2014-07-02 11:50:00,2,50000,0,0.00,2,2,0,2,50000,50000,0,50000,0,0,0,0,0.00,0.00,0.00,0.00
2014-07-02 12:00:00,2,50000,0,0.00,2,2,0,2,50000,50000,0,50000,0,0,0,0,0.00,0.00,0.00,0.00
2014-07-02 12:10:00,2,50000,0,0.00,2,2,0,2,50000,50000,0,50000,0,0,0,0,0.00,0.00,0.00,0.00
2014-07-02 12:20:00,2,49922,0,0.00,2,2,0,2,49222,50000,233,50000,0,0,0,0,0.00,0.00,0.00,0.00
2014-07-02 12:30:00,1,50000,0,0.00,0,2,1,2,50000,50000,0,50000,0,0,0,0,0.00,0.00,0.00,0.00
2014-07-02 12:40:00,0,50000,0,0.00,0,0,0,0,50000,50000,0,50000,0,0,0,0,0.00,0.00,0.00,0.00
2014-07-02 12:50:00,0,50000,0,0.00,0,0,0,0,50000,50000,0,50000,0,0,0,0,0.00,0.00,0.00,0.00
2014-07-02 13:00:00,0,50000,0,0.00,0,0,0,0,50000,50000,0,50000,0,0,0,0,0.00,0.00,0.00,0.00
2014-07-02 13:10:00,0,50000,0,0.00,0,0,0,0,50000,50000,0,50000,0,0,0,0,0.00,0.00,0.00,0.00
2014-07-02 13:20:00,0,50000,0,0.00,0,0,0,0,50000,50000,0,50000,0,0,0,0,0.00,0.00,0.00,0.00
2014-07-02 13:30:00,0,50000,0,0.00,0,0,0,0,50000,50000,0,50000,0,0,0,0,0.00,0.00,0.00,0.00
2014-07-02 13:40:00,0,50000,0,0.00,0,0,0,0,50000,50000,0,50000,0,0,0,0,0.00,0.00,0.00,0.00
2014-07-02 13:50:00,0,50000,0,0.00,0,0,0,0,50000,50000,0,50000,0,0,0,0,0.00,0.00,0.00,0.00
2014-07-02 14:00:00,0,49980,0,0.00,0,0,0,0,49798,50000,61,50000,0,0,0,0,0.00,0.00,0.00,0.00
2014-07-02 14:10:00,0,50000,0,0.00,0,0,0,0,50000,50000,0,50000,0,0,0,0,0.00,0.00,0.00,0.00
2014-07-02 14:20:00,0,50000,0,0.00,0,0,0,0,50000,50000,0,50000,0,0,0,0,0.00,0.00,0.00,0.00
2014-07-02 14:30:00,0,50000,0,0.00,0,0,0,0,50000,50000,0,50000,0,0,0,0,0.00,0.00,0.00,0.00
2014-07-02 14:40:00,0,49964,0,0.00,0,0,0,0,49637,50000,109,50000,0,0,0,0,0.00,0.00,0.00,0.00
2014-07-02 14:50:00,0,50000,0,0.00,0,0,0,0,50000,50000,0,50000,0,0,0,0,0.00,0.00,0.00,0.00
2014-07-02 15:00:00,0,49985,0,0.00,0,0,0,0,49850,50000,45,50000,0,0,0,0,0.00,0.00,0.00,0.00
2014-07-02 15:10:00,0,50000,0,0.00,0,0,0,0,50000,50000,0,50000,0,0,0,0,0.00,0.00,0.00,0.00
2014-07-02 15:20:00,0,50000,0,0.00,0,0,0,0,50000,50000,0,50000,0,0,0,0,0.00,0.00,0.00,0.00
2014-07-02 15:30:00,0,50000,0,0.00,0,0,0,0,50000,50000,0,50000,0,0,0,0,0.00,0.00,0.00,0.00
2014-07-02 15:40:00,1,50000,0,0.00,0,2,1,2,50000,50000,0,50000,0,0,0,0,0.00,0.00,0.00,0.00
2014-07-02 15:50:00,2,50000,0,0.00,2,2,0,2,50000,50000,0,50000,0,0,0,0,0.00,0.00,0.00,0.00
2014-07-02 16:00:00,2,50000,0,0.00,2,2,0,2,50000,50000,0,50000,0,0,0,0,0.00,0.00,0.00,0.00
2014-07-02 16:10:00,2,49554,0,0.00,0,2,1,2,47331,50000,913,50000,0,0,0,0,0.00,0.00,0.00,0.00
2014-07-02 16:20:00,2,49998,0,0.00,0,2,1,2,49980,50000,6,50000,0,0,0,0,0.00,0.00,0.00,0.00
2014-07-02 16:30:00,2,49815,0,0.00,0,2,1,2,48876,50000,381,50000,0,0,0,0,0.00,0.00,0.00,0.00
2014-07-02 16:40:00,2,50000,0,0.00,2,2,0,2,50000,50000,0,50000,0,0,0,0,0.00,0.00,0.00,0.00
2014-07-02 16:50:00,0,50000,0,0.00,0,0,0,0,50000,50000,0,50000,0,0,0,0,0.00,0.00,0.00,0.00
2014-07-02 17:00:00,0,50000,0,0.00,0,0,0,0,50000,50000,0,50000,0,0,0,0,0.00,0.00,0.00,0.00
2014-07-02 17:10:00,0,49980,0,0.00,0,0,0,0,49848,50000,46,50000,0,0,0,0,0.00,0.00,0.00,0.00
2014-07-02 17:20:00,0,50000,0,0.00,0,0,0,0,50000,50000,0,50000,0,0,0,0,0.00,0.00,0.00,0.00
2014-07-02 17:30:00,0,50000,0,0.00,0,0,0,0,50000,50000,0,50000,0,0,0,0,0.00,0.00,0.00,0.00
2014-07-02 17:40:00,0,49684,0,0.00,0,0,0,0,48007,50000,658,50000,0,0,0,0,0.00,0.00,0.00,0.00
2014-07-02 17:50:00,0,50000,0,0.00,0,0,0,0,50000,50000,0,50000,0,0,0,0,0.00,0.00,0.00,0.00
2014-07-02 18:00:00,0,50000,0,0.00,0,0,0,0,50000,50000,0,50000,0,0,0,0,0.00,0.00,0.00,0.00
2014-07-02 18:10:00,0,50000,0,0.00,0,0,0,0,50000,50000,0,50000,0,0,0,0,0.00,0.00,0.00,0.00
2014-07-02 18:20:00,0,50000,0,0.00,0,0,0,0,50000,50000,0,50000,0,0,0,0,0.00,0.00,0.00,0.00
2014-07-02 18:30:00,0,49857,0,0.00,0,0,0,0,48566,50000,430,50000,0,0,0,0,0.00,0.00,0.00,0.00
2014-07-02 18:40:00,0,50000,0,0.00,0,0,0,0,50000,50000,0,50000,0,0,0,0,0.00,0.00,0.00,0.00
2014-07-02 18:50:00,0,50000,0,0.00,0,0,0,0,50000,50000,0,50000,0,0,0,0,0.00,0.00,0.00,0.00
2014-07-02 19:00:00,0,50000,0,0.00,0,0,0,0,50000,50000,0,50000,0,0,0,0,0.00,0.00,0.00,0.00
2014-07-02 19:10:00,0,50000,0,0.00,0,0,0,0,50000,50000,0,50000,0,0,0,0,0.00,0.00,0.00,0.00
2014-07-02 19:20:00,0,50000,0,0.00,0,0,0,0,50000,50000,0,50000,0,0,0,0,0.00,0.00,0.00,0.00
2014-07-02 19:30:00,0,50000,0,0.00,0,0,0,0,50000,50000,0,50000,0,0,0,0,0.00,0.00,0.00,0.00
2014-07-02 19:40:00,0,50000,0,0.00,0,0,0,0,50000,50000,0,50000,0,0,0,0,0.00,0.00,0.00,0.00
2014-07-02 19:50:00,0,49977,0,0.00,0,0,0,0,49773,50000,68,50000,0,0,0,0,0.00,0.00,0.00,0.00
2014-07-02 20:00:00,0,49790,0,0.00,0,0,0,0,47895,50000,632,50000,0,0,0,0,0.00,0.00,0.00,0.00
2014-07-02 20:10:00,0,50000,0,0.00,0,0,0,0,50000,50000,0,50000,0,0,0,0,0.00,0.00,0.00,0.00
2014-07-02 20:20:00,0,50000,0,0.00,0,0,0,0,50000,50000,0,50000,0,0,0,0,0.00,0.00,0.00,0.00
2014-07-02 20:30:00,0,50000,0,0.00,0,0,0,0,50000,50000,0,50000,0,0,0,0,0.00,0.00,0.00,0.00
2014-07-02 20:40:00,1,49440,0,0.00,0,2,1,2,46383,50000,1179,50000,0,0,0,0,0.00,0.00,0.00,0.00
2014-07-02 20:50:00,2,50000,0,0.00,2,2,0,2,50000,50000,0,50000,0,0,0,0,0.00,0.00,0.00,0.00
2014-07-02 21:00:00,2,50000,0,0.00,2,2,0,2,50000,50000,0,50000,0,0,0,0,0.00,0.00,0.00,0.00
2014-07-02 21:10:00,2,50000,0,0.00,2,2,0,2,50000,50000,0,50000,0,0,0,0,0.00,0.00,0.00,0.00
2014-07-02 21:20:00,2,49627,0,0.00,2,2,0,2,47233,50000,848,50000,0,0,0,0,0.00,0.00,0.00,0.00
2014-07-02 21:30:00,2,50000,0,0.00,2,2,0,2,50000,50000,0,50000,0,0,0,0,0.00,0.00,0.00,0.00
2014-07-02 21:40:00,2,49966,0,0.00,2,2,0,2,49665,50000,100,50000,0,0,0,0,0.00,0.00,0.00,0.00
2014-07-02 21:50:00,2,50000,0,0.00,2,2,0,2,50000,50000,0,50000,0,0,0,0,0.00,0.00,0.00,0.00
2014-07-02 22:00:00,2,49499,0,0.00,2,2,0,2,46409,50000,1113,50000,0,0,0,0,0.00,0.00,0.00,0.00
2014-07-02 22:10:00,2,49876,0,0.00,2,2,0,2,49090,50000,280,50000,0,0,0,0,0.00,0.00,0.00,0.00
2014-07-02 22:20:00,2,49982,0,0.00,2,2,0,2,49818,50000,55,50000,0,0,0,0,0.00,0.00,0.00,0.00
2014-07-02 22:30:00,1,48732,0,0.00,0,2,1,2,41665,50000,2601,50000,0,0,0,0,0.00,0.00,0.00,0.00
2014-07-02 22:40:00,0,48372,0,0.00,0,0,0,0,40297,50000,3027,50000,0,0,0,0,0.00,0.00,0.00,0.00
2014-07-02 22:50:00,0,43110,0,0.00,0,0,0,0,33868,50000,6141,42346,0,0,0,0,0.00,0.00,0.00,0.00
2014-07-02 23:00:00,0,44394,0,0.00,0,0,0,0,32794,50000,5464,45894,0,0,0,0,0.00,0.00,0.00,0.00
2014-07-02 23:10:00,0,14376,0,0.00,0,0,0,0,7979,25070,4178,13618,0,0,0,0,0.00,0.00,0.00,0.00
2014-07-02 23:20:00,0,14297,0,0.00,0,0,0,0,7316,25260,6824,12006,0,0,0,0,0.00,0.00,0.00,0.00
2014-07-02 23:30:00,0,19243,0,0.00,0,2,1,0,11462,28475,4936,18222,0,0,0,0,0.00,0.00,0.00,0.00
2014-07-02 23:40:00,2,7377,3,0.00,2,2,0,2,3955,10758,2429,7156,0,10,5,0,0.00,0.00,0.00,0.00
2014-07-02 23:50:00,2,6838,49,0.38,2,2,0,2,3529,12944,2754,6542,40,52,5,51,0.00,1.80,0.57,0.12
